Location: Córrego Montividiu
(13.2496°S, 48.8603°W)
Time: 11:55:34
(UTC+00:00)

SPOT 1/Viking Rocket - Pass Details

Date: 11 March 2026
Orbit: 772 x 789 km, 98.2° (Epoch: 21 April)

Event Time Altitude Azimuth Distance (km) Brightness Sun altitude
Rises 21:59:11 0° 172° (S) 3,259 6.7 -7.4°
Reaches altitude 10° 22:01:30 10° 173° (S) 2,328 6.0 -8.0°
Maximum altitude 22:06:37 73° 257° (WSW) 812 3.8 -9.2°
Drops below altitude 10° 22:11:43 10° 341° (NNW) 2,315 6.2 -10.5°
Sets 22:14:01 0° 343° (NNW) 3,239 6.9 -11.0°
